Simultaneous Nadir Overpasses (SNOs) Predictions

Prediction of SNOs between FY3D and NOAA-19 Satellite Orbit:

Table of predicted SNOs for the next 14.0 days since TLE Epoch: 7/31/2021
Index Date (FY3D) Time (FY3D) Lat,Lon (FY3D) SZA (FY3D ) Date (NOAA-19) Time (NOAA-19) Lat,Lon (NOAA-19) SZA (NOAA-19 ) Distance(km) Time Diff (sec)
1 07/31/2021 04:54:26 78.41, 82.56 61.36 07/31/2021 04:55:32 78.41, 82.68 61.32 2.72 66
2 08/13/2021 15:06:38 -78.31, 110.19 115.11 08/13/2021 15:05:26 -78.30, 110.06 115.08 3.07 72
3 08/13/2021 15:57:22 78.30, -82.43 64.89 08/13/2021 15:56:20 78.34, -82.46 64.95 4.19 62
4 08/13/2021 16:48:07 -78.31, 84.80 115.08 08/13/2021 16:47:25 -78.35, 84.85 115.04 4.07 42
5 08/13/2021 17:38:52 78.34,-108.04 64.97 08/13/2021 17:38:20 78.35,-107.90 64.97 3.21 32
6 08/13/2021 18:29:37 -78.36, 59.19 115.00 08/13/2021 18:29:26 -78.32, 59.18 115.03 3.64 11
7 08/13/2021 19:20:21 78.34,-133.42 65.00 08/13/2021 19:20:20 78.36,-133.33 65.00 2.49 1
8 08/13/2021 20:11:06 -78.36, 33.81 114.98 08/13/2021 20:11:26 -78.33, 33.74 115.00 3.19 20
9 08/13/2021 21:01:50 78.35,-158.81 65.02 08/13/2021 21:02:20 78.37,-158.77 65.02 2.42 30
10 08/13/2021 21:52:35 -78.36, 8.42 114.95 08/13/2021 21:53:25 -78.38, 8.54 114.97 3.26 50
11 08/13/2021 22:43:19 78.35, 175.81 65.05 08/13/2021 22:44:20 78.38, 175.80 65.05 3.03 61
12 08/13/2021 23:34:13 -78.70, -19.03 114.44 08/13/2021 23:35:18 -78.63, -15.23 114.86 83.44 65



Historial Predications of SNOs between FY3D and NOAA-19
